Regional Weather Roundup
Issued by NWS

Home | Current Version | Previous Version | Text Only | Print | Product List | Glossary On
Versions: 1 2 3 4 5 6 7 8 9 10 11 12 13 14 15 16 17 18 19 20 21 22 23 24 25 26 27 28 29 30 31 32 33 34 35 36 37 38 39 40 41 42 43 44 45 46 47 48 49 50
000
ASUS45 KSLC 210610
RWRUT

UTAH REGIONAL WEATHER ROUNDUP
NATIONAL WEATHER SERVICE SALT LAKE CITY UT
1200 AM MDT TUE APR 21 2015

UTZ001>011-023>025-210700-

NORTHERN UTAH

CITY           SKY/WX    TMP DP  RH WIND       PRES   REMARKS
BRIGHAM CITY   PTCLDY    51  33  49 CALM      29.88F
HILL AFB       CLEAR     52  26  36 E14       29.89S
LOGAN          PTCLDY    47  37  68 S3        29.89S
OGDEN          CLEAR     51  29  42 S8        29.88S
PROVO AIRPORT  CLEAR     48  34  57 S7        29.90S
SALT LAKE CITY CLEAR     53  26  35 S7        29.87F
VERNAL         CLEAR     45  26  47 W5        29.91S
WENDOVER       CLEAR     52  19  28 W7        29.87F
HEBER CITY     CLEAR     37  21  52 SE5       29.95R WCI  34
WEST JORDAN    CLEAR     48  28  46 CALM      29.90S

$$

UTZ012>022-026-027-210700-

SOUTHERN/CENTRAL UTAH

CITY           SKY/WX    TMP DP  RH WIND       PRES   REMARKS
BLANDING       CLEAR     46  30  54 N7        30.01S
BRYCE CANYON   CLEAR     32  18  56 W6        30.04S WCI  26
CEDAR CITY     CLEAR     51  16  24 SE9       29.92R
DELTA          CLEAR     46  21  36 NE6       29.89S
HANKSVILLE     CLEAR     46  28  49 CALM      29.89R
MILFORD        CLEAR     48  14  25 CALM      29.90R
MOAB/CYNLANDS  CLEAR     49  32  52 CALM      29.85S
PRICE          CLEAR     48  15  26 E5        29.92S
ST GEORGE      CLEAR     66  16  14 E12       29.80R
KANAB          CLEAR     43  19  39 NE6       29.95R

$$

REGIONAL REPORTS     COLORADO/ARIZONA

CITY           SKY/WX    TMP DP  RH WIND       PRES   REMARKS
CRAIG, CO      CLEAR     34  30  85 CALM      29.96S
GRAND JUNCTION MOCLDY    49  39  68 NE3       29.90S
RIFLE          CLEAR     43  31  62 E5        29.97S
MONTROSE       CLEAR     46  34  62 SE10      29.97S
CORTEZ         CLEAR     34  25  69 E7        29.97R WCI  28
PAGE, AZ       CLEAR     66  16  14 SW6       29.85S
GRAND CANYON   MOCLDY    33  15  47 CALM      30.02R
KINGMAN        CLEAR     65  15  14 S14       29.86S
FLAGSTAFF      PTCLDY    36  21  54 CALM      30.05S

$$

REGIONAL REPORTS    NEVADA/IDAHO/WYOMING

CITY           SKY/WX    TMP DP  RH WIND       PRES   REMARKS
LAS VEGAS, NV  PTCLDY    76  16  10 S10       29.72S
ELY            CLEAR     36   2  23 S8        29.96S WCI  30
ELKO           CLEAR     46  21  37 CALM      29.90S
POCATELLO, ID  CLEAR     48  25  40 S9        29.88S
BURLEY         CLEAR     45  29  53 SW10      29.85S
EVANSTON, WY   PTCLDY    45  22  40 SE5       29.99S
ROCK SPRINGS   CLEAR     39  21  48 NE9       29.96S WCI  33
KEMMERER       MOCLDY    37  19  48 N7        29.99S WCI  32

$$



USA.gov is the U.S. government's official web portal to all federal, state and local government web resources and services.